Year,Month,Day,Hour,Minute,Value (Times are PST for temperature in C)
2010,05,03,00,00,5.90
2010,05,03,00,01,6.00
2010,05,03,00,02,6.00
2010,05,03,00,03,6.00
2010,05,03,00,04,6.00
2010,05,03,00,05,6.00
2010,05,03,00,06,6.00
2010,05,03,00,07,6.10
2010,05,03,00,08,6.10
2010,05,03,00,09,6.10
2010,05,03,00,10,6.10
2010,05,03,00,11,6.10
2010,05,03,00,12,6.10
2010,05,03,00,13,6.10
2010,05,03,00,14,6.10
2010,05,03,00,15,6.10
2010,05,03,00,16,6.10
2010,05,03,00,17,6.20
2010,05,03,00,18,6.20
2010,05,03,00,19,6.20
2010,05,03,00,20,6.20
2010,05,03,00,21,6.20
2010,05,03,00,22,6.20
2010,05,03,00,23,6.20
2010,05,03,00,24,6.20
2010,05,03,00,25,6.20
2010,05,03,00,26,6.20
2010,05,03,00,27,6.20
2010,05,03,00,28,6.20
2010,05,03,00,29,6.20
2010,05,03,00,30,6.20
2010,05,03,00,31,6.20
2010,05,03,00,32,6.30
2010,05,03,00,33,6.30
2010,05,03,00,34,6.30
2010,05,03,00,35,6.30
2010,05,03,00,36,6.30
2010,05,03,00,37,6.30
2010,05,03,00,38,6.30
2010,05,03,00,39,6.30
2010,05,03,00,40,6.30
2010,05,03,00,41,6.30
2010,05,03,00,42,6.30
2010,05,03,00,43,6.30
2010,05,03,00,44,6.30
2010,05,03,00,45,6.30
2010,05,03,00,46,6.30
2010,05,03,00,47,6.30
2010,05,03,00,48,6.30
2010,05,03,00,49,6.30
2010,05,03,00,50,6.30
2010,05,03,00,51,6.30
2010,05,03,00,52,6.40
2010,05,03,00,53,6.40
2010,05,03,00,54,6.40
2010,05,03,00,55,6.40
2010,05,03,00,56,6.40
2010,05,03,00,57,6.40
2010,05,03,00,58,6.40
2010,05,03,00,59,6.40
2010,05,03,01,00,6.40
2010,05,03,01,01,6.40
2010,05,03,01,02,6.40
2010,05,03,01,03,6.40
2010,05,03,01,04,6.40
2010,05,03,01,05,6.40
2010,05,03,01,06,6.40
2010,05,03,01,07,6.40
2010,05,03,01,08,6.40
2010,05,03,01,09,6.50
2010,05,03,01,10,6.50
2010,05,03,01,11,6.50
2010,05,03,01,12,6.50
2010,05,03,01,13,6.50
2010,05,03,01,14,6.50
2010,05,03,01,15,6.50
2010,05,03,01,16,6.50
2010,05,03,01,17,6.50
2010,05,03,01,18,6.50
2010,05,03,01,19,6.60
2010,05,03,01,20,6.60
2010,05,03,01,21,6.60
2010,05,03,01,22,6.60
2010,05,03,01,23,6.60
2010,05,03,01,24,6.60
2010,05,03,01,25,6.60
2010,05,03,01,26,6.60
2010,05,03,01,27,6.60
2010,05,03,01,28,6.60
2010,05,03,01,29,6.60
2010,05,03,01,30,6.60
2010,05,03,01,31,6.60
2010,05,03,01,32,6.70
2010,05,03,01,33,6.70
2010,05,03,01,34,6.70
2010,05,03,01,35,6.70
2010,05,03,01,36,6.70
2010,05,03,01,37,6.70
2010,05,03,01,38,6.70
2010,05,03,01,39,6.70
2010,05,03,01,40,6.70
2010,05,03,01,41,6.70
2010,05,03,01,42,6.70
2010,05,03,01,43,6.70
2010,05,03,01,44,6.70
2010,05,03,01,45,6.70
2010,05,03,01,46,6.70
2010,05,03,01,47,6.70
2010,05,03,01,48,6.70
2010,05,03,01,49,6.70
2010,05,03,01,50,6.70
2010,05,03,01,51,6.70
2010,05,03,01,52,6.70
2010,05,03,01,53,6.70
2010,05,03,01,54,6.70
2010,05,03,01,55,6.70
2010,05,03,01,56,6.70
2010,05,03,01,57,6.70
2010,05,03,01,58,6.70
2010,05,03,01,59,6.70
2010,05,03,02,00,6.70
2010,05,03,02,01,6.70
2010,05,03,02,02,6.70
2010,05,03,02,03,6.70
2010,05,03,02,04,6.70
2010,05,03,02,05,6.70
2010,05,03,02,06,6.70
2010,05,03,02,07,6.70
2010,05,03,02,08,6.60
2010,05,03,02,09,6.60
2010,05,03,02,10,6.60
2010,05,03,02,11,6.60
2010,05,03,02,12,6.60
2010,05,03,02,13,6.60
2010,05,03,02,14,6.60
2010,05,03,02,15,6.60
2010,05,03,02,16,6.60
2010,05,03,02,17,6.60
2010,05,03,02,18,6.60
2010,05,03,02,19,6.60
2010,05,03,02,20,6.50
2010,05,03,02,21,6.50
2010,05,03,02,22,6.50
2010,05,03,02,23,6.50
2010,05,03,02,24,6.50
2010,05,03,02,25,6.50
2010,05,03,02,26,6.60
2010,05,03,02,27,6.60
2010,05,03,02,28,6.60
2010,05,03,02,29,6.50
2010,05,03,02,30,6.50
2010,05,03,02,31,6.50
2010,05,03,02,32,6.50
2010,05,03,02,33,6.50
2010,05,03,02,34,6.60
2010,05,03,02,35,6.60
2010,05,03,02,36,6.60
2010,05,03,02,37,6.60
2010,05,03,02,38,6.60
2010,05,03,02,39,6.60
2010,05,03,02,40,6.60
2010,05,03,02,41,6.60
2010,05,03,02,42,6.60
2010,05,03,02,43,6.60
2010,05,03,02,44,6.70
2010,05,03,02,45,6.70
2010,05,03,02,46,6.70
2010,05,03,02,47,6.70
2010,05,03,02,48,6.70
2010,05,03,02,49,6.70
2010,05,03,02,50,6.70
2010,05,03,02,51,6.70
2010,05,03,02,52,6.70
2010,05,03,02,53,6.70
2010,05,03,02,54,6.70
2010,05,03,02,55,6.60
2010,05,03,02,56,6.60
2010,05,03,02,57,6.60
2010,05,03,02,58,6.60
2010,05,03,02,59,6.60
2010,05,03,03,00,6.60
2010,05,03,03,01,6.60
2010,05,03,03,02,6.60
2010,05,03,03,03,6.60
2010,05,03,03,04,6.50
2010,05,03,03,05,6.50
2010,05,03,03,06,6.50
2010,05,03,03,07,6.40
2010,05,03,03,08,6.40
2010,05,03,03,09,6.40
2010,05,03,03,10,6.30
2010,05,03,03,11,6.40
2010,05,03,03,12,6.40
2010,05,03,03,13,6.40
2010,05,03,03,14,6.40
2010,05,03,03,15,6.40
2010,05,03,03,16,6.40
2010,05,03,03,17,6.40
2010,05,03,03,18,6.40
2010,05,03,03,19,6.40
2010,05,03,03,20,6.40
2010,05,03,03,21,6.40
2010,05,03,03,22,6.40
2010,05,03,03,23,6.40
2010,05,03,03,24,6.40
2010,05,03,03,25,6.40
2010,05,03,03,26,6.30
2010,05,03,03,27,6.40
2010,05,03,03,28,6.40
2010,05,03,03,29,6.40
2010,05,03,03,30,6.50
2010,05,03,03,31,6.50
2010,05,03,03,32,6.60
2010,05,03,03,33,6.60
2010,05,03,03,34,6.60
2010,05,03,03,35,6.60
2010,05,03,03,36,6.60
2010,05,03,03,37,6.60
2010,05,03,03,38,6.60
2010,05,03,03,39,6.60
2010,05,03,03,40,6.70
2010,05,03,03,41,6.70
2010,05,03,03,42,6.70
2010,05,03,03,43,6.70
2010,05,03,03,44,6.80
2010,05,03,03,45,6.80
2010,05,03,03,46,6.80
2010,05,03,03,47,6.80
2010,05,03,03,48,6.80
2010,05,03,03,49,6.80
2010,05,03,03,50,6.80
2010,05,03,03,51,6.80
2010,05,03,03,52,6.80
2010,05,03,03,53,6.80
2010,05,03,03,54,6.70
2010,05,03,03,55,6.70
2010,05,03,03,56,6.80
2010,05,03,03,57,6.80
2010,05,03,03,58,6.80
2010,05,03,03,59,6.80
2010,05,03,04,00,6.80
2010,05,03,04,01,6.80
2010,05,03,04,02,6.80
2010,05,03,04,03,6.80
2010,05,03,04,04,6.80
2010,05,03,04,05,6.80
2010,05,03,04,06,6.70
2010,05,03,04,07,6.70
2010,05,03,04,08,6.70
2010,05,03,04,09,6.60
2010,05,03,04,10,6.60
2010,05,03,04,11,6.60
2010,05,03,04,12,6.70
2010,05,03,04,13,6.70
2010,05,03,04,14,6.70
2010,05,03,04,15,6.70
2010,05,03,04,16,6.70
2010,05,03,04,17,6.70
2010,05,03,04,18,6.70
2010,05,03,04,19,6.70
2010,05,03,04,20,6.70
2010,05,03,04,21,6.60
2010,05,03,04,22,6.60
2010,05,03,04,23,6.60
2010,05,03,04,24,6.60
2010,05,03,04,25,6.70
2010,05,03,04,26,6.70
2010,05,03,04,27,6.70
2010,05,03,04,28,6.80
2010,05,03,04,29,6.80
2010,05,03,04,30,6.90
2010,05,03,04,31,6.90
2010,05,03,04,32,6.90
2010,05,03,04,33,6.90
2010,05,03,04,34,6.90
2010,05,03,04,35,6.90
2010,05,03,04,36,6.90
2010,05,03,04,37,6.90
2010,05,03,04,38,6.80
2010,05,03,04,39,6.80
2010,05,03,04,40,6.80
2010,05,03,04,41,6.80
2010,05,03,04,42,6.70
2010,05,03,04,43,6.70
2010,05,03,04,44,6.70
2010,05,03,04,45,6.70
2010,05,03,04,46,6.80
2010,05,03,04,47,6.80
2010,05,03,04,48,6.80
2010,05,03,04,49,6.80
2010,05,03,04,50,6.80
2010,05,03,04,51,6.90
2010,05,03,04,52,7.00
2010,05,03,04,53,7.00
2010,05,03,04,54,7.10
2010,05,03,04,55,7.20
2010,05,03,04,56,7.20
2010,05,03,04,57,7.20
2010,05,03,04,58,7.20
2010,05,03,04,59,7.10
2010,05,03,05,00,7.10
2010,05,03,05,01,6.90
2010,05,03,05,02,6.70
2010,05,03,05,03,6.60
2010,05,03,05,04,6.40
2010,05,03,05,05,6.30
2010,05,03,05,06,6.20
2010,05,03,05,07,6.10
2010,05,03,05,08,6.10
2010,05,03,05,09,6.00
2010,05,03,05,10,5.90
2010,05,03,05,11,5.90
2010,05,03,05,12,5.80
2010,05,03,05,13,5.70
2010,05,03,05,14,5.70
2010,05,03,05,15,5.60
2010,05,03,05,16,5.60
2010,05,03,05,17,5.50
2010,05,03,05,18,5.40
2010,05,03,05,19,5.40
2010,05,03,05,20,5.40
2010,05,03,05,21,5.40
2010,05,03,05,22,5.40
2010,05,03,05,23,5.40
2010,05,03,05,24,5.30
2010,05,03,05,25,5.30
2010,05,03,05,26,5.30
2010,05,03,05,27,5.30
2010,05,03,05,28,5.30
2010,05,03,05,29,5.30
2010,05,03,05,30,5.30
2010,05,03,05,31,5.30
2010,05,03,05,32,5.30
2010,05,03,05,33,5.30
2010,05,03,05,34,5.30
2010,05,03,05,35,5.30
2010,05,03,05,36,5.30
2010,05,03,05,37,5.30
2010,05,03,05,38,5.30
2010,05,03,05,39,5.20
2010,05,03,05,40,5.20
2010,05,03,05,41,5.20
2010,05,03,05,42,5.20
2010,05,03,05,43,5.20
2010,05,03,05,44,5.20
2010,05,03,05,45,5.20
2010,05,03,05,46,5.20
2010,05,03,05,47,5.20
2010,05,03,05,48,5.20
2010,05,03,05,49,5.20
2010,05,03,05,50,5.20
2010,05,03,05,51,5.20
2010,05,03,05,52,5.20
2010,05,03,05,53,5.20
2010,05,03,05,54,5.20
2010,05,03,05,55,5.20
2010,05,03,05,56,5.20
2010,05,03,05,57,5.20
2010,05,03,05,58,5.20
2010,05,03,05,59,5.20
2010,05,03,06,00,5.20
2010,05,03,06,01,5.20
2010,05,03,06,02,5.10
2010,05,03,06,03,5.10
2010,05,03,06,04,5.10
2010,05,03,06,05,5.10
2010,05,03,06,06,5.10
2010,05,03,06,07,5.10
2010,05,03,06,08,5.10
2010,05,03,06,09,5.10
2010,05,03,06,10,5.00
2010,05,03,06,11,5.00
2010,05,03,06,12,5.00
2010,05,03,06,13,5.00
2010,05,03,06,14,5.00
2010,05,03,06,15,5.00
2010,05,03,06,16,5.00
2010,05,03,06,17,5.00
2010,05,03,06,18,5.00
2010,05,03,06,19,5.00
2010,05,03,06,20,5.00
2010,05,03,06,21,5.00
2010,05,03,06,22,5.00
2010,05,03,06,23,5.00
2010,05,03,06,24,5.00
2010,05,03,06,25,5.00
2010,05,03,06,26,5.00
2010,05,03,06,27,5.00
2010,05,03,06,28,5.00
2010,05,03,06,29,5.00
2010,05,03,06,30,5.10
2010,05,03,06,31,5.10
2010,05,03,06,32,5.10
2010,05,03,06,33,5.10
2010,05,03,06,34,5.10
2010,05,03,06,35,5.10
2010,05,03,06,36,5.10
2010,05,03,06,37,5.10
2010,05,03,06,38,5.10
2010,05,03,06,39,5.10
2010,05,03,06,40,5.10
2010,05,03,06,41,5.10
2010,05,03,06,42,5.10
2010,05,03,06,43,5.10
2010,05,03,06,44,5.20
2010,05,03,06,45,5.20
2010,05,03,06,46,5.20
2010,05,03,06,47,5.20
2010,05,03,06,48,5.20
2010,05,03,06,49,5.30
2010,05,03,06,50,5.30
2010,05,03,06,51,5.30
2010,05,03,06,52,5.30
2010,05,03,06,53,5.30
2010,05,03,06,54,5.40
2010,05,03,06,55,5.40
2010,05,03,06,56,5.50
2010,05,03,06,57,5.50
2010,05,03,06,58,5.60
2010,05,03,06,59,5.60
2010,05,03,07,00,5.70
2010,05,03,07,01,5.70
2010,05,03,07,02,5.70
2010,05,03,07,03,5.80
2010,05,03,07,04,5.80
2010,05,03,07,05,5.80
2010,05,03,07,06,5.80
2010,05,03,07,07,5.80
2010,05,03,07,08,5.80
2010,05,03,07,09,5.90
2010,05,03,07,10,5.90
2010,05,03,07,11,5.90
2010,05,03,07,12,5.90
2010,05,03,07,13,5.90
2010,05,03,07,14,5.90
2010,05,03,07,15,5.90
2010,05,03,07,16,5.90
2010,05,03,07,17,5.90
2010,05,03,07,18,5.90
2010,05,03,07,19,5.90
2010,05,03,07,20,6.00
2010,05,03,07,21,6.00
2010,05,03,07,22,6.00
2010,05,03,07,23,6.10
2010,05,03,07,24,6.10
2010,05,03,07,25,6.10
2010,05,03,07,26,6.10
2010,05,03,07,27,6.20
2010,05,03,07,28,6.20
2010,05,03,07,29,6.20
2010,05,03,07,30,6.20
2010,05,03,07,31,6.20
2010,05,03,07,32,6.20
2010,05,03,07,33,6.30
2010,05,03,07,34,6.30
2010,05,03,07,35,6.30
2010,05,03,07,36,6.30
2010,05,03,07,37,6.40
2010,05,03,07,38,6.40
2010,05,03,07,39,6.40
2010,05,03,07,40,6.40
2010,05,03,07,41,6.50
2010,05,03,07,42,6.50
2010,05,03,07,43,6.60
2010,05,03,07,44,6.60
2010,05,03,07,45,6.70
2010,05,03,07,46,6.70
2010,05,03,07,47,6.80
2010,05,03,07,48,6.80
2010,05,03,07,49,6.80
2010,05,03,07,50,6.80
2010,05,03,07,51,6.80
2010,05,03,07,52,6.80
2010,05,03,07,53,6.80
2010,05,03,07,54,6.80
2010,05,03,07,55,6.80
2010,05,03,07,56,6.90
2010,05,03,07,57,6.90
2010,05,03,07,58,6.90
2010,05,03,07,59,6.90
2010,05,03,08,00,6.90
2010,05,03,08,01,6.90
2010,05,03,08,02,7.00
2010,05,03,08,03,7.00
2010,05,03,08,04,7.00
2010,05,03,08,05,7.10
2010,05,03,08,06,7.10
2010,05,03,08,07,7.10
2010,05,03,08,08,7.10
2010,05,03,08,09,7.20
2010,05,03,08,10,7.20
2010,05,03,08,11,7.20
2010,05,03,08,12,7.20
2010,05,03,08,13,7.20
2010,05,03,08,14,7.30
2010,05,03,08,15,7.30
2010,05,03,08,16,7.30
2010,05,03,08,17,7.40
2010,05,03,08,18,7.40
2010,05,03,08,19,7.40
2010,05,03,08,20,7.50
2010,05,03,08,21,7.50
2010,05,03,08,22,7.50
2010,05,03,08,23,7.60
2010,05,03,08,24,7.60
2010,05,03,08,25,7.70
2010,05,03,08,26,7.70
2010,05,03,08,27,7.80
2010,05,03,08,28,7.80
2010,05,03,08,29,7.90
2010,05,03,08,30,7.90
2010,05,03,08,31,8.00
2010,05,03,08,32,8.10
2010,05,03,08,33,8.10
2010,05,03,08,34,8.10
2010,05,03,08,35,8.10
2010,05,03,08,36,8.10
2010,05,03,08,37,8.10
2010,05,03,08,38,8.10
2010,05,03,08,39,8.20
2010,05,03,08,40,8.20
2010,05,03,08,41,8.30
2010,05,03,08,42,8.40
2010,05,03,08,43,8.50
2010,05,03,08,44,8.50
2010,05,03,08,45,8.60
2010,05,03,08,46,8.70
2010,05,03,08,47,8.70
2010,05,03,08,48,8.80
2010,05,03,08,49,8.90
2010,05,03,08,50,8.90
2010,05,03,08,51,9.00
2010,05,03,08,52,9.00
2010,05,03,08,53,9.10
2010,05,03,08,54,9.10
2010,05,03,08,55,9.10
2010,05,03,08,56,9.20
2010,05,03,08,57,9.20
2010,05,03,08,58,9.20
2010,05,03,08,59,9.30
2010,05,03,09,00,9.30
2010,05,03,09,01,9.30
2010,05,03,09,02,9.30
2010,05,03,09,03,9.40
2010,05,03,09,04,9.40
2010,05,03,09,05,9.40
2010,05,03,09,06,9.40
2010,05,03,09,07,9.40
2010,05,03,09,08,9.40
2010,05,03,09,09,9.40
2010,05,03,09,10,9.40
2010,05,03,09,11,9.50
2010,05,03,09,12,9.50
2010,05,03,09,13,9.50
2010,05,03,09,14,9.60
2010,05,03,09,15,9.60
2010,05,03,09,16,9.70
2010,05,03,09,17,9.70
2010,05,03,09,18,9.60
2010,05,03,09,19,9.60
2010,05,03,09,20,9.70
2010,05,03,09,21,9.70
2010,05,03,09,22,9.70
2010,05,03,09,23,9.70
2010,05,03,09,24,9.70
2010,05,03,09,25,9.70
2010,05,03,09,26,9.70
2010,05,03,09,27,9.80
2010,05,03,09,28,9.80
2010,05,03,09,29,9.80
2010,05,03,09,30,9.80
2010,05,03,09,31,9.80
2010,05,03,09,32,9.80
2010,05,03,09,33,9.80
2010,05,03,09,34,9.90
2010,05,03,09,35,9.90
2010,05,03,09,36,9.90
2010,05,03,09,37,9.90
2010,05,03,09,38,9.90
2010,05,03,09,39,9.90
2010,05,03,09,40,9.90
2010,05,03,09,41,9.90
2010,05,03,09,42,10.00
2010,05,03,09,43,10.00
2010,05,03,09,44,10.10
2010,05,03,09,45,10.10
2010,05,03,09,46,10.20
2010,05,03,09,47,10.10
2010,05,03,09,48,10.10
2010,05,03,09,49,10.10
2010,05,03,09,50,10.00
2010,05,03,09,51,10.00
2010,05,03,09,52,9.90
2010,05,03,09,53,9.90
2010,05,03,09,54,9.90
2010,05,03,09,55,9.90
2010,05,03,09,56,9.90
2010,05,03,09,57,9.90
2010,05,03,09,58,9.90
2010,05,03,09,59,9.90
2010,05,03,10,00,10.00
2010,05,03,10,01,10.00
2010,05,03,10,02,10.10
2010,05,03,10,03,10.10
2010,05,03,10,04,10.10
2010,05,03,10,05,10.10
2010,05,03,10,06,10.20
2010,05,03,10,07,10.20
2010,05,03,10,08,10.30
2010,05,03,10,09,10.30
2010,05,03,10,10,10.30
2010,05,03,10,11,10.30
2010,05,03,10,12,10.40
2010,05,03,10,13,10.30
2010,05,03,10,14,10.30
2010,05,03,10,15,10.30
2010,05,03,10,16,10.30
2010,05,03,10,17,10.30
2010,05,03,10,18,10.30
2010,05,03,10,19,10.40
2010,05,03,10,20,10.40
2010,05,03,10,21,10.40
2010,05,03,10,22,10.40
2010,05,03,10,23,10.40
2010,05,03,10,24,10.30
2010,05,03,10,25,10.20
2010,05,03,10,26,10.10
2010,05,03,10,27,10.10
2010,05,03,10,28,10.10
2010,05,03,10,29,10.00
2010,05,03,10,30,9.90
2010,05,03,10,31,9.80
2010,05,03,10,32,9.80
2010,05,03,10,33,9.80
2010,05,03,10,34,9.80
2010,05,03,10,35,9.80
2010,05,03,10,36,9.70
2010,05,03,10,37,9.70
2010,05,03,10,38,9.60
2010,05,03,10,39,9.60
2010,05,03,10,40,9.50
2010,05,03,10,41,9.50
2010,05,03,10,42,9.50
2010,05,03,10,43,9.40
2010,05,03,10,44,9.30
2010,05,03,10,45,9.10
2010,05,03,10,46,9.10
2010,05,03,10,47,9.00
2010,05,03,10,48,8.90
2010,05,03,10,49,8.80
2010,05,03,10,50,8.80
2010,05,03,10,51,8.90
2010,05,03,10,52,8.90
2010,05,03,10,53,8.90
2010,05,03,10,54,8.90
2010,05,03,10,55,9.00
2010,05,03,10,56,9.00
2010,05,03,10,57,8.90
2010,05,03,10,58,8.90
2010,05,03,10,59,8.90
2010,05,03,11,00,8.90
2010,05,03,11,01,8.90
2010,05,03,11,02,8.80
2010,05,03,11,03,8.80
2010,05,03,11,04,8.70
2010,05,03,11,05,8.70
2010,05,03,11,06,8.70
2010,05,03,11,07,8.60
2010,05,03,11,08,8.60
2010,05,03,11,09,8.60
2010,05,03,11,10,8.60
2010,05,03,11,11,8.50
2010,05,03,11,12,8.50
2010,05,03,11,13,8.50
2010,05,03,11,14,8.40
2010,05,03,11,15,8.40
2010,05,03,11,16,8.40
2010,05,03,11,17,8.40
2010,05,03,11,18,8.40
2010,05,03,11,19,8.40
2010,05,03,11,20,8.40
2010,05,03,11,21,8.40
2010,05,03,11,22,8.40
2010,05,03,11,23,8.50
2010,05,03,11,24,8.60
2010,05,03,11,25,8.60
2010,05,03,11,26,8.60
2010,05,03,11,27,8.60
2010,05,03,11,28,8.60
2010,05,03,11,29,8.60
2010,05,03,11,30,8.60
2010,05,03,11,31,8.70
2010,05,03,11,32,8.70
2010,05,03,11,33,8.70
2010,05,03,11,34,8.60
2010,05,03,11,35,8.60
2010,05,03,11,36,8.50
2010,05,03,11,37,8.40
2010,05,03,11,38,8.40
2010,05,03,11,39,8.40
2010,05,03,11,40,8.50
2010,05,03,11,41,8.50
2010,05,03,11,42,8.60
2010,05,03,11,43,8.70
2010,05,03,11,44,8.70
2010,05,03,11,45,8.70
2010,05,03,11,46,8.60
2010,05,03,11,47,8.60
2010,05,03,11,48,8.60
2010,05,03,11,49,8.60
2010,05,03,11,50,8.50
2010,05,03,11,51,8.50
2010,05,03,11,52,8.40
2010,05,03,11,53,8.40
2010,05,03,11,54,8.30
2010,05,03,11,55,8.30
2010,05,03,11,56,8.20
2010,05,03,11,57,8.20
2010,05,03,11,58,8.20
2010,05,03,11,59,8.20
2010,05,03,12,00,8.20
2010,05,03,12,01,8.20
2010,05,03,12,02,8.20
2010,05,03,12,03,8.20
2010,05,03,12,04,8.20
2010,05,03,12,05,8.30
2010,05,03,12,06,8.30
2010,05,03,12,07,8.30
2010,05,03,12,08,8.40
2010,05,03,12,09,8.40
2010,05,03,12,10,8.30
2010,05,03,12,11,8.30
2010,05,03,12,12,8.30
2010,05,03,12,13,8.40
2010,05,03,12,14,8.40
2010,05,03,12,15,8.40
2010,05,03,12,16,8.40
2010,05,03,12,17,8.40
2010,05,03,12,18,8.50
2010,05,03,12,19,8.50
2010,05,03,12,20,8.50
2010,05,03,12,21,8.40
2010,05,03,12,22,8.40
2010,05,03,12,23,8.50
2010,05,03,12,24,8.50
2010,05,03,12,25,8.60
2010,05,03,12,26,8.70
2010,05,03,12,27,8.80
2010,05,03,12,28,8.90
2010,05,03,12,29,9.00
2010,05,03,12,30,9.00
2010,05,03,12,31,9.00
2010,05,03,12,32,9.00
2010,05,03,12,33,9.00
2010,05,03,12,34,8.90
2010,05,03,12,35,8.90
2010,05,03,12,36,8.90
2010,05,03,12,37,8.90
2010,05,03,12,38,8.90
2010,05,03,12,39,8.90
2010,05,03,12,40,9.00
2010,05,03,12,41,9.00
2010,05,03,12,42,9.00
2010,05,03,12,43,9.10
2010,05,03,12,44,9.10
2010,05,03,12,45,9.10
2010,05,03,12,46,9.10
2010,05,03,12,47,9.10
2010,05,03,12,48,9.10
2010,05,03,12,49,9.10
2010,05,03,12,50,9.10
2010,05,03,12,51,9.10
2010,05,03,12,52,9.20
2010,05,03,12,53,9.20
2010,05,03,12,54,9.30
2010,05,03,12,55,9.30
2010,05,03,12,56,9.30
2010,05,03,12,57,9.30
2010,05,03,12,58,9.30
2010,05,03,12,59,9.20
2010,05,03,13,00,9.20
2010,05,03,13,01,9.20
2010,05,03,13,02,9.20
2010,05,03,13,03,9.10
2010,05,03,13,04,9.10
2010,05,03,13,05,9.10
2010,05,03,13,06,9.10
2010,05,03,13,07,9.20
2010,05,03,13,08,9.20
2010,05,03,13,09,9.30
2010,05,03,13,10,9.50
2010,05,03,13,11,9.60
2010,05,03,13,12,9.80
2010,05,03,13,13,9.90
2010,05,03,13,14,10.00
2010,05,03,13,15,10.00
2010,05,03,13,16,10.00
2010,05,03,13,17,10.00
2010,05,03,13,18,10.00
2010,05,03,13,19,10.10
2010,05,03,13,20,10.00
2010,05,03,13,21,10.00
2010,05,03,13,22,9.90
2010,05,03,13,23,9.80
2010,05,03,13,24,9.80
2010,05,03,13,25,9.80
2010,05,03,13,26,9.90
2010,05,03,13,27,10.00
2010,05,03,13,28,10.10
2010,05,03,13,29,10.20
2010,05,03,13,30,10.20
2010,05,03,13,31,10.20
2010,05,03,13,32,10.20
2010,05,03,13,33,10.10
2010,05,03,13,34,10.00
2010,05,03,13,35,9.90
2010,05,03,13,36,9.80
2010,05,03,13,37,9.70
2010,05,03,13,38,9.60
2010,05,03,13,39,9.60
2010,05,03,13,40,9.70
2010,05,03,13,41,9.90
2010,05,03,13,42,9.90
2010,05,03,13,43,9.90
2010,05,03,13,44,9.90
2010,05,03,13,45,9.80
2010,05,03,13,46,9.70
2010,05,03,13,47,9.60
2010,05,03,13,48,9.50
2010,05,03,13,49,9.30
2010,05,03,13,50,9.20
2010,05,03,13,51,9.10
2010,05,03,13,52,9.10
2010,05,03,13,53,9.10
2010,05,03,13,54,9.10
2010,05,03,13,55,9.20
2010,05,03,13,56,9.30
2010,05,03,13,57,9.40
2010,05,03,13,58,9.50
2010,05,03,13,59,9.60
2010,05,03,14,00,9.70
2010,05,03,14,01,9.80
2010,05,03,14,02,9.80
2010,05,03,14,03,9.90
2010,05,03,14,04,9.90
2010,05,03,14,05,9.90
2010,05,03,14,06,9.90
2010,05,03,14,07,9.80
2010,05,03,14,08,9.70
2010,05,03,14,09,9.70
2010,05,03,14,10,9.70
2010,05,03,14,11,9.80
2010,05,03,14,12,9.90
2010,05,03,14,13,10.00
2010,05,03,14,14,10.00
2010,05,03,14,15,9.90
2010,05,03,14,16,9.90
2010,05,03,14,17,9.90
2010,05,03,14,18,9.90
2010,05,03,14,19,9.90
2010,05,03,14,20,9.80
2010,05,03,14,21,9.80
2010,05,03,14,22,9.80
2010,05,03,14,23,9.80
2010,05,03,14,24,9.70
2010,05,03,14,25,9.70
2010,05,03,14,26,9.60
2010,05,03,14,27,9.60
2010,05,03,14,28,9.60
2010,05,03,14,29,9.60
2010,05,03,14,30,9.60
2010,05,03,14,31,9.50
2010,05,03,14,32,9.50
2010,05,03,14,33,9.50
2010,05,03,14,34,9.60
2010,05,03,14,35,9.60
2010,05,03,14,36,9.60
2010,05,03,14,37,9.60
2010,05,03,14,38,9.50
2010,05,03,14,39,9.50
2010,05,03,14,40,9.50
2010,05,03,14,41,9.50
2010,05,03,14,42,9.60
2010,05,03,14,43,9.70
2010,05,03,14,44,9.70
2010,05,03,14,45,9.70
2010,05,03,14,46,9.60
2010,05,03,14,47,9.60
2010,05,03,14,48,9.60
2010,05,03,14,49,9.60
2010,05,03,14,50,9.60
2010,05,03,14,51,9.70
2010,05,03,14,52,9.70
2010,05,03,14,53,9.70
2010,05,03,14,54,9.70
2010,05,03,14,55,9.70
2010,05,03,14,56,9.60
2010,05,03,14,57,9.40
2010,05,03,14,58,9.30
2010,05,03,14,59,9.20
2010,05,03,15,00,9.10
2010,05,03,15,01,9.00
2010,05,03,15,02,8.90
2010,05,03,15,03,8.80
2010,05,03,15,04,8.80
2010,05,03,15,05,8.70
2010,05,03,15,06,8.70
2010,05,03,15,07,8.70
2010,05,03,15,08,8.70
2010,05,03,15,09,8.70
2010,05,03,15,10,8.60
2010,05,03,15,11,8.70
2010,05,03,15,12,8.70
2010,05,03,15,13,8.70
2010,05,03,15,14,8.70
2010,05,03,15,15,8.70
2010,05,03,15,16,8.80
2010,05,03,15,17,8.80
2010,05,03,15,18,8.90
2010,05,03,15,19,9.00
2010,05,03,15,20,9.10
2010,05,03,15,21,9.20
2010,05,03,15,22,9.40
2010,05,03,15,23,9.50
2010,05,03,15,24,9.50
2010,05,03,15,25,9.40
2010,05,03,15,26,9.40
2010,05,03,15,27,9.40
2010,05,03,15,28,9.40
2010,05,03,15,29,9.30
2010,05,03,15,30,9.20
2010,05,03,15,31,9.20
2010,05,03,15,32,9.20
2010,05,03,15,33,9.20
2010,05,03,15,34,9.10
2010,05,03,15,35,9.00
2010,05,03,15,36,8.90
2010,05,03,15,37,8.90
2010,05,03,15,38,8.80
2010,05,03,15,39,8.70
2010,05,03,15,40,8.60
2010,05,03,15,41,8.60
2010,05,03,15,42,8.50
2010,05,03,15,43,8.50
2010,05,03,15,44,8.40
2010,05,03,15,45,8.40
2010,05,03,15,46,8.30
2010,05,03,15,47,8.20
2010,05,03,15,48,8.10
2010,05,03,15,49,8.00
2010,05,03,15,50,8.00
2010,05,03,15,51,8.00
2010,05,03,15,52,8.00
2010,05,03,15,53,8.00
2010,05,03,15,54,8.00
2010,05,03,15,55,7.90
2010,05,03,15,56,8.00
2010,05,03,15,57,8.00
2010,05,03,15,58,7.90
2010,05,03,15,59,7.90
2010,05,03,16,00,7.90
2010,05,03,16,01,7.80
2010,05,03,16,02,7.80
2010,05,03,16,03,7.70
2010,05,03,16,04,7.60
2010,05,03,16,05,7.50
2010,05,03,16,06,7.40
2010,05,03,16,07,7.20
2010,05,03,16,08,7.20
2010,05,03,16,09,7.10
2010,05,03,16,10,6.90
2010,05,03,16,11,6.80
2010,05,03,16,12,6.60
2010,05,03,16,13,6.50
2010,05,03,16,14,6.40
2010,05,03,16,15,6.30
2010,05,03,16,16,6.30
2010,05,03,16,17,6.20
2010,05,03,16,18,6.10
2010,05,03,16,19,6.00
2010,05,03,16,20,5.90
2010,05,03,16,21,5.90
2010,05,03,16,22,5.80
2010,05,03,16,23,5.80
2010,05,03,16,24,5.80
2010,05,03,16,25,5.70
2010,05,03,16,26,5.70
2010,05,03,16,27,5.60
2010,05,03,16,28,5.60
2010,05,03,16,29,5.60
2010,05,03,16,30,5.60
2010,05,03,16,31,5.60
2010,05,03,16,32,5.50
2010,05,03,16,33,5.50
2010,05,03,16,34,5.50
2010,05,03,16,35,5.60
2010,05,03,16,36,5.60
2010,05,03,16,37,5.60
2010,05,03,16,38,5.70
2010,05,03,16,39,5.70
2010,05,03,16,40,5.70
2010,05,03,16,41,5.70
2010,05,03,16,42,5.70
2010,05,03,16,43,5.70
2010,05,03,16,44,5.80
2010,05,03,16,45,5.80
2010,05,03,16,46,5.80
2010,05,03,16,47,5.90
2010,05,03,16,48,5.90
2010,05,03,16,49,5.90
2010,05,03,16,50,6.00
2010,05,03,16,51,6.00
2010,05,03,16,52,6.10
2010,05,03,16,53,6.20
2010,05,03,16,54,6.20
2010,05,03,16,55,6.20
2010,05,03,16,56,6.30
2010,05,03,16,57,6.30
2010,05,03,16,58,6.40
2010,05,03,16,59,6.40
2010,05,03,17,00,6.40
2010,05,03,17,01,6.40
2010,05,03,17,02,6.40
2010,05,03,17,03,6.40
2010,05,03,17,04,6.40
2010,05,03,17,05,6.40
2010,05,03,17,06,6.40
2010,05,03,17,07,6.40
2010,05,03,17,08,6.30
2010,05,03,17,09,6.30
2010,05,03,17,10,6.20
2010,05,03,17,11,6.20
2010,05,03,17,12,6.10
2010,05,03,17,13,6.10
2010,05,03,17,14,6.10
2010,05,03,17,15,6.00
2010,05,03,17,16,6.00
2010,05,03,17,17,6.00
2010,05,03,17,18,5.90
2010,05,03,17,19,5.90
2010,05,03,17,20,5.90
2010,05,03,17,21,5.90
2010,05,03,17,22,5.90
2010,05,03,17,23,5.90
2010,05,03,17,24,5.90
2010,05,03,17,25,5.90
2010,05,03,17,26,5.90
2010,05,03,17,27,5.80
2010,05,03,17,28,5.80
2010,05,03,17,29,5.80
2010,05,03,17,30,5.80
2010,05,03,17,31,5.80
2010,05,03,17,32,5.90
2010,05,03,17,33,5.90
2010,05,03,17,34,5.90
2010,05,03,17,35,6.00
2010,05,03,17,36,6.10
2010,05,03,17,37,6.10
2010,05,03,17,38,6.10
2010,05,03,17,39,6.10
2010,05,03,17,40,6.10
2010,05,03,17,41,6.20
2010,05,03,17,42,6.10
2010,05,03,17,43,6.10
2010,05,03,17,44,6.10
2010,05,03,17,45,6.10
2010,05,03,17,46,6.10
2010,05,03,17,47,6.00
2010,05,03,17,48,6.00
2010,05,03,17,49,5.90
2010,05,03,17,50,5.90
2010,05,03,17,51,5.80
2010,05,03,17,52,5.80
2010,05,03,17,53,5.80
2010,05,03,17,54,5.70
2010,05,03,17,55,5.70
2010,05,03,17,56,5.60
2010,05,03,17,57,5.60
2010,05,03,17,58,5.60
2010,05,03,17,59,5.50
2010,05,03,18,00,5.50
2010,05,03,18,01,5.40
2010,05,03,18,02,5.40
2010,05,03,18,03,5.40
2010,05,03,18,04,5.30